#timestamp,LO_Frequency,Hit,StdDev 
1513782015.5,286047000.0,N
1513782035.3,286047003.5,N
1513782055.2,286047003.4,N
1513782075.9,286047005.9,N
1513782095.7,286047006.8,N
1513782115.5,286047006.2,N
1513782135.4,286047006.1,N
1513782155.2,286047003.5,N
1513782175.0,286047004.8,N
1513782175.9,286047004.8,N
1513782195.8,286047003.2,N
1513782215.6,286047003.8,N
1513782235.4,286047002.3,N
1513782255.3,286047006.3,N
1513782275.1,286047007.0,N
1513782276.0,286047007.0,N
1513782295.8,286047003.8,N
1513782315.7,286047008.6,N
1513782335.5,286047010.5,N
1513782355.3,286047008.6,N
1513782375.2,286047006.1,N
1513782395.9,286047010.5,N
1513782415.7,286047011.0,N
1513782435.5,286047006.2,N
1513782455.4,286047003.4,N
1513782475.2,286047002.4,N
1513782495.0,286047003.6,N
1513782495.9,286047003.6,N
1513782515.8,286046999.9,N
1513782535.6,286047000.2,N
1513782555.4,286047001.7,N
1513782575.3,286047003.5,N
1513782595.1,286047004.3,N
1513782596.0,286047004.3,N
1513782615.8,286047008.4,Y
1513782635.7,286047008.3,P
1513782655.5,286047012.1,P
1513782675.3,286047011.2,P
1513782695.2,286047011.3,Y
1513782715.0,286047005.7,P
1513782715.9,286047005.7,P
1513782735.7,286047007.4,P
1513782755.6,286047010.2,Y
1513782775.4,286047006.9,P
1513782795.2,286047006.1,P
1513782815.1,286047002.9,P
1513782816.0,286047002.9,N
1513782835.8,286047002.5,N
1513782855.6,286047003.2,N
1513782875.5,286047001.3,N
1513782895.3,286047004.3,N
1513782915.1,286047002.1,N
1513782935.9,286047006.0,Y
1513782955.7,286047000.7,P
1513782975.5,286047003.2,N
1513782995.4,286047004.2,P
1513783015.2,286047004.0,N
1513783035.0,286047001.5,N
1513783035.9,286047001.5,N
1513783055.8,286046998.2,N
1513783075.6,286046998.4,N
1513783095.4,286047004.4,N
1513783115.3,286047002.3,N
1513783135.1,286047002.6,N
1513783136.0,286047002.6,N
1513783155.8,286047002.2,N
1513783175.6,286047004.4,N
1513783195.5,286047007.1,Y
1513783215.3,286047003.5,P
1513783235.1,286047004.4,P
1513783255.9,286046998.2,N
1513783275.7,286047001.1,N
1513783295.5,286046998.2,N
1513783315.4,286047003.5,N
1513783335.2,286047003.8,N
1513783355.0,286047004.0,N
1513783355.9,286047004.0,N
1513783375.8,286047001.7,N
1513783395.6,286047003.5,N
1513783415.4,286047001.3,N
1513783435.3,286047001.6,N
1513783455.1,286047004.1,N
1513783456.0,286047004.1,N
1513783475.8,286047007.0,Y
1513783495.7,286047001.6,P
1513783515.5,286046997.4,P
1513783535.3,286046996.2,N
1513783555.2,286046998.8,N
1513783575.9,286046998.7,N
1513783595.7,286046998.7,N
1513783615.6,286047001.0,N
1513783635.4,286047001.0,N
1513783655.2,286047000.8,N
1513783675.0,286047004.7,N
1513783676.0,286047004.7,N
1513783695.8,286047007.0,N
1513783715.6,286047008.7,N
1513783735.5,286047011.5,Y
1513783755.3,286047013.3,P
1513783775.1,286047009.8,N
1513783795.8,286047011.5,N
1513783815.7,286047013.3,N
1513783835.5,286047013.3,Y
1513783855.3,286047002.5,P
1513783875.2,286047002.3,N
1513783895.0,286047004.2,N
1513783895.9,286047004.2,N
1513783915.7,286047004.5,N
1513783935.6,286047010.8,Y
1513783955.4,286047005.2,P
1513783975.2,286047006.7,P
1513783995.1,286047003.8,P
1513783996.0,286047003.8,Y
1513784015.8,286046998.5,P
1513784035.6,286047002.6,N
1513784055.5,286047003.5,N
1513784075.3,286047005.1,N
1513784095.1,286047005.4,N
1513784115.9,286047007.0,N
1513784135.7,286047008.5,Y
1513784155.5,286047005.0,P
1513784175.4,286047007.8,P
1513784195.2,286047010.2,P
1513784215.0,286047010.9,Y
1513784215.9,286047010.9,P
1513784235.8,286047005.2,N
1513784255.6,286047003.4,N
1513784275.4,286047006.7,N
1513784295.3,286047006.1,N
1513784315.1,286047010.8,Y
1513784335.8,286047002.5,P
1513784355.7,286046998.4,N
1513784375.5,286047001.3,N
1513784395.3,286047003.6,N
1513784415.2,286046999.8,N
1513784435.9,286047000.6,N
1513784455.7,286047001.1,N
1513784475.6,286046995.2,N
1513784495.4,286046997.7,N
1513784515.2,286046993.9,N
1513784535.1,286046993.4,N
1513784536.0,286046993.4,N
1513784555.8,286046988.8,N
1513784575.6,286046986.9,N
1513784595.4,286046988.7,N
1513784615.3,286046986.5,N
1513784635.1,286046982.7,N
1513784655.8,286046982.6,N
1513784675.7,286046984.8,N
1513784695.5,286046984.3,N
1513784715.3,286046978.9,N
1513784735.2,286046981.0,N
1513784755.9,286046977.6,N
1513784775.7,286046979.8,N
1513784795.6,286046977.2,N
1513784815.4,286046971.4,Y
1513784835.2,286046982.9,P
1513784855.1,286046979.8,P
1513784856.0,286046979.8,P
1513784875.8,286046976.1,Y
1513784895.6,286046991.8,P
1513784915.5,286046991.2,N
1513784935.3,286046991.9,N
1513784955.1,286046996.3,N
1513784975.9,286046997.6,N
1513784995.7,286046994.8,N
1513785015.5,286046988.5,N
1513785035.3,286046988.4,N
1513785055.2,286046984.1,Y
1513785075.0,286046990.1,P
1513785075.9,286046990.1,P
1513785095.8,286046990.1,P
1513785115.6,286046990.7,Y
1513785135.4,286047000.7,P
1513785155.3,286047002.6,N
1513785175.1,286047000.3,N
1513785176.0,286047000.3,N
1513785195.8,286046998.4,N
1513785215.7,286046998.8,N
1513785235.5,286046998.9,N
1513785255.3,286046996.5,N
1513785275.1,286046997.2,N
1513785295.9,286046995.1,N
1513785315.7,286046993.5,N
1513785335.5,286046993.9,N
1513785355.4,286046994.5,N
1513785375.2,286046993.7,N
1513785395.0,286046992.0,N
1513785395.9,286046992.0,N
1513785415.8,286046994.8,N
1513785435.6,286046989.1,Y
1513785455.4,286046993.3,P
1513785475.3,286046995.4,P
1513785495.1,286046996.0,P
1513785496.0,286046996.0,Y
1513785515.8,286047002.2,P
1513785535.7,286047005.0,N
1513785555.5,286047010.4,N
1513785575.3,286047010.4,N
1513785595.2,286047009.3,N
